User: anonymous   Login
Location: Unspecified
(0.0000°N, 0.0000°E)
Time: 01:23:18
(UTC+01:00)
Language:

AO-40 - Orbit

View from above orbital plane
View from above orbital plane
View from above satellite
View from above satellite

Ground track
Ground track

The orbit data is extracted from the following two-line orbital elements,

1 26609U 00072B   17021.38390011 -.00000298 +00000-0 +00000-0 0  9998
2 26609 006.4414 254.0106 7962600 070.1716 353.6302 01.25588067074379
Epoch (UTC): 21 January 2017 09:12:48
Eccentricity: 0.7962600
inclination: 6.4414°
perigee height: 1015 km
apogee height: 58805 km
right ascension of ascending node: 254.0106°
argument of perigee: 70.1716°
revolutions per day: 1.25588067
mean anomaly at epoch: 353.6302°
orbit number at epoch: 7437

The dashed part of the orbit path shows where the satellite is in the earth's shadow,  

DLR